Wind_Speed
9 10 10 10 10 9 9 9 10 9 9 9 9 9 10 10 10 10 11 11 12 12 12 11 11 10 10 10 9 9 9 9 8 8 7 6 6 5 5 5 5 5 5
10 11 11 11 10 11 11 10 10 10 10 10 10 10 10 11 11 11 12 12 12 12 12 12 12 11 11 10 10 10 10 10 9 9 8 8 7 6 6 6 6 6 6
12 12 13 12 12 12 12 11 11 11 11 11 11 11 11 11 11 12 12 12 13 13 13 13 13 12 12 11 11 11 10 10 10 9 9 8 8 8 7 7 7 7 6
13 13 14 13 13 13 13 12 12 12 12 12 12 12 12 12 12 13 13 13 13 14 14 14 14 13 13 12 12 11 11 11 10 10 10 9 9 8 8 8 8 8 7
14 14 15 15 14 14 14 13 13 13 13 13 13 13 13 13 13 13 13 14 14 14 15 14 14 14 14 13 13 12 12 12 11 11 10 10 9 9 9 9 9 9 8
16 16 16 16 15 15 15 14 14 14 14 14 14 14 14 14 14 14 14 15 15 15 15 15 15 15 15 14 14 13 13 13 12 12 11 11 11 10 10 10 10 9 9
18 18 17 17 16 15 15 15 15 15 15 15 15 15 15 15 15 15 15 15 15 16 16 16 16 16 16 16 15 15 14 14 14 13 13 12 12 12 11 11 11 11 11
19 18 18 18 17 16 16 16 16 16 16 16 16 16 16 17 17 16 17 17 17 17 17 17 17 17 17 17 17 16 16 16 16 15 14 13 13 13 12 12 12 11 12
19 19 18 19 19 18 17 17 17 17 17 17 17 17 18 18 18 17 18 18 18 18 18 18 18 18 18 17 17 17 17 17 17 17 16 15 14 14 13 12 13 13 13
20 19 19 19 19 18 18 18 18 18 18 18 18 18 18 19 19 19 19 20 19 18 19 19 19 19 19 18 18 18 18 18 18 17 17 16 16 15 15 14 14 14 14
21 19 19 19 19 19 19 19 19 19 19 19 19 20 19 20 20 20 21 21 21 20 20 20 21 21 20 20 19 19 19 19 19 19 18 18 17 17 16 16 16 15 15
20 19 19 20 19 19 19 19 20 20 21 21 21 21 21 21 22 22 22 22 22 22 22 22 22 22 22 21 21 20 20 20 20 20 19 19 18 18 18 17 17 17 17
20 20 20 20 20 20 20 20 20 21 22 22 22 22 22 22 22 23 23 23 23 23 23 23 23 23 22 22 21 21 21 21 21 21 21 20 20 19 19 19 19 18 19
21 21 21 21 21 21 21 21 21 22 22 24 24 24 24 24 23 23 24 24 24 24 24 24 24 24 23 23 23 23 22 22 22 22 22 22 22 20 20 20 20 20 20
22 22 22 22 22 22 22 22 23 23 24 25 25 25 25 25 24 24 24 24 24 25 25 25 25 25 25 25 24 24 23 22 22 22 23 23 22 22 22 22 22 21 22
22 22 22 22 22 22 23 24 23 24 25 25 25 26 26 26 25 24 24 24 24 25 25 25 26 26 26 26 26 26 25 24 24 24 24 24 23 23 23 23 23 23 23
21 21 22 23 23 23 24 25 25 25 26 26 27 27 27 27 26 25 24 24 25 26 26 27 27 27 28 27 27 26 25 25 25 25 25 26 25 25 25 24 24 23 24
22 22 23 24 24 25 25 26 27 27 27 27 27 26 26 27 27 26 26 26 26 26 26 26 26 28 29 28 27 27 26 26 26 26 27 27 27 26 26 26 26 25 26
23 23 24 24 25 26 26 26 27 28 29 29 28 27 27 27 27 27 27 27 26 26 26 27 27 28 28 29 28 28 28 28 27 27 27 27 27 27 27 26 26 26 26
24 24 24 24 25 26 27 28 28 28 28 28 28 28 28 27 28 28 28 27 27 27 27 28 28 28 29 29 29 29 28 28 28 27 27 27 27 27 27 28 27 27 27
25 25 25 25 26 26 27 28 28 28 27 28 29 29 28 28 28 28 28 28 28 28 28 28 28 29 30 31 30 30 29 28 27 27 27 28 28 28 28 28 28 28 28
25 25 25 26 26 27 27 28 28 28 27 28 28 27 27 27 28 29 29 29 28 29 28 29 29 30 31 31 30 30 29 28 28 28 27 28 27 28 28 29 29 28 29
24 25 26 27 27 27 28 28 28 27 27 27 27 27 27 28 28 29 30 30 30 29 28 28 29 28 28 28 29 29 29 28 28 28 28 28 28 28 28 29 29 29 29
26 26 27 27 27 27 29 28 28 28 28 27 27 26 27 28 28 27 27 28 28 28 28 28 27 27 28 27 28 29 29 28 28 29 30 29 29 29 29 29 29 29 29
27 27 27 27 27 28 28 28 28 28 28 27 26 27 27 27 27 26 27 27 27 27 28 27 26 27 27 27 27 28 28 28 28 29 28 29 29 30 30 30 30 30 29
27 27 28 28 28 28 28 29 28 28 28 27 26 27 26 26 26 26 27 27 27 26 26 25 25 26 26 27 27 27 27 27 28 29 29 29 31 31 30 30 30 29 29
Wind_Direction
335 335 334 332 331 330 329 330 330 329 332 331 330 331 330 329 329 328 328 326 323 321 319 318 318 317 317 316 315 315 315 315 312 306 302 302 301 293 286 276 267 261 248
326 326 327 326 324 323 323 322 323 323 322 323 324 324 324 323 321 321 321 319 317 315 313 312 313 311 311 311 311 310 310 311 309 307 301 299 297 290 282 271 263 258 250
319 319 319 317 317 318 318 318 317 316 316 317 318 318 317 317 314 314 313 312 311 310 309 308 309 308 306 306 306 305 305 306 305 302 300 296 292 286 278 269 261 255 249
316 314 313 311 312 313 314 315 314 312 311 311 312 312 311 310 309 308 308 307 306 307 305 303 303 303 302 302 301 301 300 300 300 297 294 292 288 285 278 267 260 254 249
313 311 307 305 307 309 310 311 309 307 307 306 307 307 306 305 305 305 304 303 303 304 303 302 300 299 298 298 297 296 295 295 294 293 290 287 285 281 276 270 265 260 254
308 307 303 301 302 304 304 305 304 303 302 301 301 302 301 301 301 301 300 300 301 301 300 299 298 297 296 294 294 294 293 293 291 288 285 284 281 278 275 270 267 263 259
306 304 301 299 298 300 300 300 299 298 297 296 297 296 296 297 296 296 296 295 296 296 296 296 296 295 294 291 291 290 291 290 289 288 284 281 279 281 278 269 265 265 261
307 305 301 299 296 295 295 297 297 295 294 294 294 293 292 293 292 292 292 292 291 291 292 292 293 293 292 289 288 288 288 288 288 287 284 280 277 278 276 270 265 265 264
306 303 300 302 299 294 292 292 292 292 292 292 292 293 289 289 289 288 289 288 288 288 288 289 289 290 290 288 286 286 285 286 287 286 283 280 277 276 273 268 266 265 265
308 305 304 302 298 294 291 292 292 290 290 290 289 289 289 285 284 286 288 287 285 286 286 286 286 287 287 287 285 283 282 282 284 284 281 278 276 275 272 266 266 266 264
308 305 304 303 299 295 293 291 289 289 289 288 287 286 286 284 283 284 285 286 283 282 283 284 284 285 284 284 284 281 279 280 280 279 277 276 274 274 272 266 264 263 265
307 305 306 302 299 294 291 291 291 289 288 286 285 284 283 281 282 282 281 282 280 279 280 281 282 283 282 281 281 279 277 278 277 276 274 272 272 271 269 267 265 263 263
304 303 302 301 297 293 290 290 290 289 287 286 285 283 282 280 281 280 278 279 278 278 279 279 281 280 281 279 278 276 275 275 274 272 270 269 270 269 267 266 267 263 260
302 302 299 300 295 292 289 286 289 291 289 287 285 282 279 278 279 278 276 276 278 278 278 279 278 278 279 277 276 275 274 272 271 270 268 268 268 267 265 264 263 263 259
302 301 299 300 296 293 291 287 288 290 289 287 285 281 279 276 276 275 276 276 277 277 277 276 276 277 277 276 275 274 274 271 269 268 267 265 265 264 264 263 263 263 259
301 302 301 302 299 295 291 288 287 288 288 287 284 280 277 274 273 273 273 275 276 276 275 274 274 275 277 277 274 273 272 270 269 267 267 265 264 262 262 263 262 261 258
299 300 299 298 298 294 293 292 288 289 287 284 282 280 279 275 274 274 274 276 274 274 272 272 274 274 276 276 273 271 271 269 267 266 265 265 263 263 263 263 261 260 259
298 300 300 300 299 296 293 294 291 289 288 284 280 279 281 279 276 274 273 275 273 272 273 273 274 275 275 274 272 270 270 269 268 266 265 263 262 263 264 263 261 261 260
296 299 301 300 298 294 293 294 291 288 286 284 280 280 280 279 277 276 273 273 271 271 272 274 273 274 274 274 272 271 270 270 268 267 265 264 262 262 263 262 261 260 260
295 295 297 298 297 294 293 295 293 293 289 284 282 282 280 278 276 274 272 270 270 269 271 273 272 271 272 272 271 270 270 269 267 265 264 264 263 262 262 263 262 260 259
295 295 295 295 294 294 295 296 295 294 290 288 286 284 281 279 275 272 272 270 270 270 272 273 273 273 271 269 268 268 268 267 265 264 263 263 263 262 263 263 262 261 259
295 296 295 294 295 296 296 296 297 295 292 290 288 286 283 280 276 273 272 270 270 271 271 272 275 275 274 270 268 267 265 265 266 264 263 262 262 262 263 262 261 260 259
298 298 297 297 296 296 296 297 299 296 294 292 288 284 283 280 277 274 270 269 271 270 270 271 275 275 274 271 267 266 263 264 264 263 263 262 262 263 264 263 262 261 260
299 300 299 299 296 297 296 296 297 297 294 293 288 282 279 278 276 275 272 271 271 269 268 270 272 272 272 271 269 266 265 264 264 262 262 262 263 263 264 263 261 261 259
299 299 299 299 297 297 297 298 298 298 296 292 288 284 280 278 276 274 272 272 272 269 267 268 271 272 272 272 270 267 265 265 264 263 261 263 263 263 263 261 260 260 257
299 299 298 297 296 297 298 300 299 298 297 295 292 287 282 279 279 276 272 273 271 270 269 267 271 272 272 271 269 268 266 265 265 264 263 262 263 263 262 261 260 258 256
Height
5898 5897 5896 5895 5894 5893 5892 5891 5890 5890 5890 5890 5889 5889 5889 5888 5888 5887 5887 5886 5886 5885 5884 5884 5883 5882 5882 5881 5880 5880 5879 5879 5878 5878 5877 5877 5876 5876 5876 5877 5877 5877 5877
5897 5896 5895 5894 5893 5892 5891 5890 5889 5888 5888 5888 5888 5887 5887 5887 5886 5886 5885 5885 5884 5883 5883 5882 5882 5881 5880 5880 5879 5878 5878 5877 5877 5876 5876 5876 5875 5875 5875 5876 5876 5876 5876
5896 5895 5894 5893 5892 5891 5889 5888 5887 5887 5886 5886 5885 5885 5885 5885 5884 5884 5883 5883 5882 5882 5881 5881 5880 5880 5879 5878 5878 5877 5877 5876 5876 5875 5875 5874 5874 5874 5874 5875 5875 5875 5875
5895 5894 5893 5892 5890 5889 5888 5887 5886 5885 5885 5884 5883 5883 5883 5883 5882 5882 5881 5880 5880 5880 5879 5879 5878 5878 5877 5877 5876 5876 5875 5875 5875 5874 5873 5873 5873 5873 5873 5873 5873 5874 5874
5893 5892 5891 5890 5888 5887 5886 5885 5884 5883 5883 5882 5882 5881 5881 5880 5880 5879 5878 5878 5878 5877 5877 5876 5876 5876 5875 5875 5875 5874 5874 5873 5873 5873 5872 5872 5871 5871 5871 5871 5872 5872 5872
5891 5890 5889 5888 5886 5885 5884 5883 5882 5881 5881 5880 5879 5879 5878 5878 5877 5876 5876 5875 5875 5875 5874 5874 5873 5873 5873 5873 5872 5872 5872 5871 5871 5870 5870 5870 5870 5869 5869 5869 5869 5870 5870
5889 5888 5886 5885 5884 5883 5882 5881 5880 5879 5878 5878 5877 5876 5876 5875 5874 5873 5873 5872 5872 5872 5871 5871 5870 5870 5870 5870 5870 5870 5869 5869 5868 5868 5868 5867 5867 5867 5866 5866 5867 5867 5867
5886 5885 5883 5882 5881 5880 5879 5878 5877 5876 5876 5875 5874 5874 5873 5872 5871 5871 5870 5869 5869 5868 5868 5868 5867 5867 5867 5867 5867 5866 5866 5866 5865 5865 5865 5865 5864 5864 5864 5864 5864 5864 5865
5883 5882 5880 5879 5878 5876 5875 5875 5874 5873 5873 5872 5871 5871 5870 5869 5868 5868 5867 5866 5865 5865 5864 5864 5864 5863 5863 5863 5863 5863 5863 5862 5862 5862 5862 5862 5861 5861 5861 5861 5861 5862 5862
5880 5878 5877 5875 5874 5873 5872 5872 5871 5870 5869 5868 5868 5867 5866 5865 5865 5864 5864 5863 5862 5861 5861 5860 5860 5860 5860 5859 5859 5859 5859 5858 5858 5858 5858 5858 5858 5858 5858 5858 5859 5859 5859
5877 5875 5873 5872 5871 5870 5868 5868 5867 5866 5865 5865 5864 5863 5862 5862 5861 5860 5860 5859 5858 5858 5857 5857 5856 5856 5855 5855 5855 5855 5854 5854 5854 5854 5854 5854 5854 5855 5855 5855 5855 5855 5856
5873 5872 5870 5868 5867 5866 5865 5864 5863 5862 5861 5860 5860 5859 5858 5857 5857 5856 5855 5854 5854 5853 5853 5853 5852 5852 5851 5851 5851 5850 5850 5850 5850 5850 5850 5850 5851 5851 5851 5851 5851 5852 5852
5870 5868 5866 5864 5863 5862 5861 5860 5859 5858 5857 5856 5855 5854 5853 5852 5852 5851 5850 5850 5849 5848 5848 5848 5847 5847 5846 5846 5846 5846 5845 5845 5845 5845 5846 5846 5846 5846 5847 5847 5847 5848 5848
5866 5864 5862 5860 5859 5857 5856 5855 5854 5853 5852 5851 5850 5849 5848 5847 5846 5846 5845 5844 5844 5843 5843 5842 5842 5841 5841 5841 5841 5841 5841 5841 5840 5840 5840 5841 5841 5842 5842 5842 5842 5843 5844
5861 5860 5858 5856 5854 5853 5852 5850 5849 5848 5847 5846 5845 5844 5843 5842 5841 5840 5839 5839 5839 5838 5837 5837 5836 5836 5836 5836 5835 5835 5835 5835 5835 5835 5835 5836 5836 5836 5837 5837 5837 5838 5839
5857 5855 5854 5851 5850 5848 5847 5845 5844 5843 5841 5840 5839 5838 5837 5836 5835 5834 5834 5833 5833 5832 5832 5831 5831 5830 5830 5830 5830 5830 5829 5829 5830 5830 5830 5830 5831 5831 5831 5832 5832 5833 5834
5852 5851 5849 5847 5845 5843 5841 5840 5838 5836 5835 5834 5832 5831 5830 5830 5829 5828 5828 5827 5827 5826 5825 5825 5825 5824 5824 5824 5824 5824 5823 5823 5823 5823 5824 5824 5824 5825 5826 5826 5826 5827 5828
5848 5846 5844 5842 5840 5838 5836 5834 5832 5830 5829 5828 5826 5825 5824 5824 5823 5822 5822 5821 5820 5820 5819 5819 5818 5818 5818 5818 5817 5817 5817 5817 5817 5817 5817 5817 5818 5819 5819 5820 5821 5822 5822
5843 5841 5839 5837 5835 5832 5830 5828 5826 5824 5822 5821 5820 5819 5818 5817 5816 5815 5815 5814 5814 5813 5813 5812 5812 5811 5811 5811 5810 5810 5810 5810 5810 5810 5810 5811 5811 5812 5813 5813 5814 5815 5816
5837 5835 5833 5831 5829 5826 5824 5822 5820 5818 5816 5814 5813 5812 5810 5809 5809 5808 5808 5808 5807 5807 5806 5806 5805 5805 5804 5804 5804 5803 5803 5802 5802 5803 5803 5804 5805 5805 5806 5807 5807 5808 5809
5831 5829 5827 5825 5823 5820 5818 5815 5813 5811 5809 5808 5806 5804 5803 5802 5802 5801 5801 5800 5800 5800 5799 5799 5798 5797 5797 5796 5796 5796 5796 5795 5795 5796 5796 5797 5798 5798 5799 5800 5800 5801 5802
5826 5824 5822 5820 5817 5815 5812 5809 5807 5805 5802 5800 5798 5796 5795 5794 5794 5793 5793 5792 5792 5792 5792 5791 5790 5790 5789 5787 5788 5788 5788 5789 5788 5789 5789 5789 5790 5791 5792 5793 5793 5794 5795
5819 5817 5816 5814 5811 5809 5806 5803 5801 5799 5797 5794 5792 5789 5788 5787 5786 5785 5785 5784 5785 5784 5784 5783 5783 5782 5781 5780 5780 5780 5780 5781 5781 5781 5781 5782 5783 5783 5784 5785 5785 5786 5787
5814 5812 5809 5807 5805 5802 5799 5797 5794 5792 5789 5787 5784 5782 5780 5779 5778 5777 5776 5776 5776 5776 5776 5776 5774 5774 5774 5773 5772 5772 5773 5773 5774 5774 5774 5774 5775 5776 5776 5777 5778 5778 5779
5808 5805 5803 5801 5798 5795 5793 5790 5787 5784 5782 5779 5776 5774 5773 5772 5771 5769 5769 5769 5769 5768 5768 5767 5767 5766 5766 5765 5765 5765 5765 5765 5765 5766 5767 5767 5767 5768 5768 5769 5770 5771 5772
5801 5799 5796 5793 5791 5788 5785 5782 5779 5777 5774 5772 5769 5768 5766 5765 5764 5762 5762 5761 5761 5761 5760 5760 5759 5759 5758 5758 5757 5757 5757 5757 5757 5758 5759 5759 5759 5760 5760 5761 5762 5763 5764